Regional Weather Roundup
Issued by NWS Kansas City/Pleasant Hill, MO

Home | Current Version | Previous Version | Text Only | Print | Product List | Glossary On
Versions: 1 2 3 4 5 6 7 8 9 10 11 12 13 14 15 16 17 18 19 20 21 22 23 24 25 26 27 28 29 30 31 32 33 34 35 36 37 38 39 40 41 42 43 44 45 46 47 48 49 50
000
ASUS43 KEAX 040810
RWREAX

WEATHER ROUNDUP FOR EASTERN KANSAS AND NORTHWEST MISSOURI
NATIONAL WEATHER SERVICE KANSAS CITY/PLEASANT HILL MO
200 AM CST SUN DEC 04 2016

KSZ040-057-103>105-MOZ028-029-037-043-040900-
...KANSAS CITY METROPOLITAN AREA...

CITY           SKY/WX    TMP DP  RH WIND       PRES   REMARKS
K.C. INTL      RAIN      40  38  93 SE7       30.06F FOG
K.C. DOWNTOWN  LGT RAIN  42  39  89 SE9       30.07F
LEES SUMMIT    LGT RAIN  40  38  93 SE8       30.07F WCI  34
OLATHE - IXD   LGT RAIN  40  39  97 SE9       30.05F WCI  34
OLATHE - OJC   LGT RAIN  39  38  96 SE8       30.05F FOG     WCI  33
LAWRENCE       LGT RAIN  41  41 100 CALM      30.06S FOG

$$

MOZ001>008-011>017-020>025-030>033-038>040-044>046-053-054-040900-
...NORTHERN AND CENTRAL MISSOURI...

CITY           SKY/WX    TMP DP  RH WIND       PRES   REMARKS
ST. JOSEPH     LGT RAIN  40  39  97 CALM      30.07F FOG
MOSBY          LGT RAIN  41  39  93 E5        30.08F
WARRENSBURG    DRIZZLE   37  36  93 SE3       30.09F
WHITEMAN AFB   LGT RAIN  39  39 100 SE5       30.08F
CLINTON        LGT RAIN  39  37  93 E6        30.09F WCI  35
SEDALIA        CLOUDY    40  36  86 SE7       30.10F
WARSAW         NOT AVBL
CHILLICOTHE      N/A     39  37  92 SE3       30.12F
KIRKSVILLE     CLOUDY    37  34  89 S7        30.14R WCI  32

$$

MOZ041-047>049-056>058-063>065-088>090-097-040900-
...EASTERN AND SOUTHERN MISSOURI...

CITY           SKY/WX    TMP DP  RH WIND       PRES   REMARKS
ST. LOUIS INTL CLOUDY    41  32  70 E8        30.16F
SPIRIT OF STL  LGT RAIN  40  33  76 E6        30.15F
COLUMBIA       CLOUDY    38  35  89 E5        30.12F WCI  34
JEFFERSON CITY CLOUDY    39  35  86 SE3       30.13F
ROLLA          MIX PCPN  36  35  96 E7        30.10S FOG     WCI  30
OSAGE BEACH    LGT RAIN  38  35  89 E6        30.11F WCI  33
SPRINGFIELD    CLOUDY    39  36  89 SE14      30.03F WCI  31
BRANSON        CLOUDY    37  37 100 E10       30.04F WCI  30
JOPLIN         CLOUDY    40  40 100 E3        30.05R FOG
WEST PLAINS    CLOUDY    37  35  92 E7        30.10F FOG     WCI  32

$$

IAZ060-094-KSZ022-034>040-054-083-096-NEZ052-066-093-040900-
...KANSAS...SOUTHEAST NEBRASKA AND IOWA...

CITY           SKY/WX    TMP DP  RH WIND       PRES   REMARKS
TOPEKA         LGT RAIN  40  38  93 CALM      30.06S FOG
MANHATTAN      LGT RAIN  40  39  97 CALM      30.05F FOG
EMPORIA        RAIN      40  40 100 N3        30.04S FOG
CHANUTE        LGT RAIN  41  39  93 E7        30.04F FOG
WICHITA        LGT RAIN  41  41 100 N3        30.03F FOG
OMAHA          LGT RAIN  34  31  88 S6        30.03S FOG     WCI  29
LINCOLN        CLOUDY    33  32  96 W8        30.03F WCI  26
FALLS CITY     RAIN      40  40 100 S5        30.05S FOG
LAMONI         LGT RAIN  37  34  89 SE10G17   30.06F WCI  30
DES MOINES     LGT SNOW  36  34  92 SE10      30.08F FOG     WCI  28

$$




USA.gov is the U.S. government's official web portal to all federal, state and local government web resources and services.